This demonstration page uses our WeatherBlox Daily Observations layout. Learn more.

Left ArrowRight Arrow

Hourly Observations for July 15, 2018

Temp ( °F °C ) Dew Point ( °F °C ) Humidity (%) Winds ( mph kmh ) Pressure ( in mb ) Visibility ( mi km ) Precip ( " mm )
12:53 am 00:53 Clear 74 23.3 67 19.4 79 79 ESE 7 11 30.01 1016 10 16 0.00 0.00
1:53 am 01:53 Clear 73 22.8 67 19.4 81 81 SE 7 11 30.00 1016 10 16 0.00 0.00
2:53 am 02:53 Mostly Clear 72 22.2 67 19.4 84 84 SE 5 7 29.99 1016 10 16 0.00 0.00
3:53 am 03:53 Mostly Clear 72 22.2 68 20 87 87 SSE 6 9 29.99 1016 10 16 0.00 0.00
4:53 am 04:53 Partly Cloudy 72 22.2 68 20 87 87 SSE 6 9 29.98 1015 10 16 0.00 0.00
5:53 am 05:53 Mostly Cloudy 72 22.2 68 20 87 87 SE 5 7 29.98 1015 10 16 0.00 0.00
6:53 am 06:53 Sunny with Mist and Fog 69 20.6 66 18.9 90 90 Calm 30.00 1016 6 10 0.00 0.00
7:53 am 07:53 Sunny 74 23.3 70 21.1 88 88 Calm 30.01 1016 8 13 0.00 0.00
8:53 am 08:53 Sunny 78 25.6 71 21.7 79 79 Calm 30.03 1017 10 16 0.00 0.00
9:53 am 09:53 Sunny 81 27.2 72 22.2 74 74 Calm 30.02 1017 10 16 0.00 0.00
10:53 am 10:53 Sunny 84 28.9 73 22.8 70 70 VRB 5 7 30.02 1017 10 16 0.00 0.00
11:53 am 11:53 Mostly Sunny 86 30 71 21.7 61 61 VRB 5 7 30.01 1016 10 16 0.00 0.00
12:53 pm 12:53 Mostly Sunny 88 31.1 68 20 52 52 NNE 8 13 30.01 1016 10 16 0.00 0.00
1:53 pm 13:53 Sunny 89 31.7 63 17.2 42 42 ENE 8 13 30.00 1016 10 16 0.00 0.00
2:53 pm 14:53 Sunny 89 31.7 68 20 50 50 NE 7 11 29.98 1015 10 16 0.00 0.00
3:53 pm 15:53 Sunny 89 31.7 68 20 50 50 NNE 7 11 29.98 1015 10 16 0.00 0.00
4:53 pm 16:53 Mostly Cloudy 89 31.7 68 20 50 50 NNE 3 6 29.99 1016 10 16 0.00 0.00
5:53 pm 17:53 Partly Cloudy 87 30.6 71 21.7 59 59 NNE 7 11 29.98 1015 10 16 0.00 0.00
6:53 pm 18:53 Sunny 86 30 71 21.7 61 61 NNE 6 9 29.98 1015 10 16 0.00 0.00
7:53 pm 19:53 Mostly Sunny 84 28.9 70 21.1 63 63 ENE 7 11 29.98 1015 10 16 0.00 0.00
8:53 pm 20:53 Sunny 81 27.2 71 21.7 72 72 NE 3 6 30.00 1016 10 16 0.00 0.00
9:53 pm 21:53 Clear 76 24.4 73 22.8 91 91 Calm 30.02 1017 10 16 0.00 0.00
10:53 pm 22:53 Mostly Clear 75 23.9 71 21.7 88 88 N 10 17 30.05 1018 10 16 0.00 0.00
11:53 pm 23:53 Clear 73 22.8 70 21.1 90 90 NNE 8 13 30.05 1018 10 16 0.00 0.00

Powered by AerisWeather